TimeEDT,TemperatureF,Dew PointF,Humidity,Sea Level PressureIn,VisibilityMPH,Wind Direction,Wind SpeedMPH,Gust SpeedMPH,PrecipitationIn,Events,Conditions,WindDirDegrees,DateUTC
12:15 AM,68.0,68.0,100,30.01,10.0,South,3.5,-,N/A,,Overcast,190,2013-11-01 04:15:00
12:35 AM,68.0,68.0,100,30.00,10.0,Calm,Calm,-,N/A,,Overcast,0,2013-11-01 04:35:00
12:55 AM,-9999,-9999,N/A,30.00,10.0,Calm,Calm,-,N/A,,Overcast,0,2013-11-01 04:55:00
1:15 AM,-9999,-9999,N/A,29.99,10.0,South,3.5,-,N/A,,Scattered Clouds,180,2013-11-01 05:15:00
1:35 AM,-9999,-9999,N/A,29.98,10.0,South,4.6,-,N/A,,Scattered Clouds,180,2013-11-01 05:35:00
1:55 AM,-9999,-9999,N/A,29.97,10.0,South,4.6,-,N/A,,Scattered Clouds,170,2013-11-01 05:55:00
2:15 AM,-9999,-9999,N/A,29.96,10.0,South,4.6,-,N/A,,Clear,190,2013-11-01 06:15:00
2:35 AM,-9999,-9999,N/A,29.95,10.0,SSW,3.5,-,N/A,,Clear,200,2013-11-01 06:35:00
2:55 AM,-9999,-9999,N/A,29.95,10.0,SSW,4.6,-,N/A,,Clear,210,2013-11-01 06:55:00
3:15 AM,-9999,-9999,N/A,29.94,10.0,SSW,6.9,-,N/A,,Clear,210,2013-11-01 07:15:00
3:35 AM,-9999,-9999,N/A,29.93,10.0,SSW,8.1,-,N/A,,Clear,210,2013-11-01 07:35:00
3:55 AM,-9999,-9999,N/A,29.92,10.0,SSW,9.2,-,N/A,,Clear,210,2013-11-01 07:55:00
4:15 AM,69.8,69.8,100,29.91,10.0,SW,12.7,-,N/A,,Clear,220,2013-11-01 08:15:00
4:35 AM,69.8,69.8,100,29.91,10.0,SSW,13.8,18.4,N/A,,Clear,210,2013-11-01 08:35:00
4:55 AM,71.6,71.6,100,29.90,10.0,SW,11.5,17.3,N/A,,Clear,220,2013-11-01 08:55:00
5:15 AM,69.8,69.8,100,29.89,10.0,SSW,12.7,-,N/A,,Clear,210,2013-11-01 09:15:00
5:35 AM,71.6,71.6,100,29.90,10.0,SW,12.7,-,N/A,,Clear,220,2013-11-01 09:35:00
5:55 AM,71.6,71.6,100,29.89,10.0,SSW,10.4,18.4,N/A,,Clear,210,2013-11-01 09:55:00
6:15 AM,71.6,71.6,100,29.89,10.0,SSW,15.0,19.6,N/A,,Clear,210,2013-11-01 10:15:00
6:35 AM,71.6,71.6,100,29.89,10.0,SSW,13.8,21.9,N/A,,Clear,210,2013-11-01 10:35:00
6:55 AM,71.6,71.6,100,29.90,10.0,SSW,13.8,20.7,N/A,,Scattered Clouds,210,2013-11-01 10:55:00
7:15 AM,71.6,71.6,100,29.90,10.0,SW,11.5,23.0,N/A,,Scattered Clouds,220,2013-11-01 11:15:00
7:35 AM,71.6,71.6,100,29.89,10.0,SSW,10.4,23.0,N/A,,Scattered Clouds,210,2013-11-01 11:35:00
7:55 AM,71.6,71.6,100,29.90,10.0,SSW,15.0,20.7,N/A,,Scattered Clouds,210,2013-11-01 11:55:00
8:15 AM,71.6,71.6,100,29.90,10.0,SSW,16.1,19.6,N/A,,Scattered Clouds,210,2013-11-01 12:15:00
8:35 AM,71.6,71.6,100,29.91,10.0,SSW,11.5,21.9,N/A,,Scattered Clouds,210,2013-11-01 12:35:00
8:55 AM,71.6,71.6,100,29.92,10.0,SW,13.8,18.4,N/A,,Scattered Clouds,220,2013-11-01 12:55:00
9:15 AM,73.4,71.6,94,29.92,10.0,SW,12.7,19.6,N/A,,Mostly Cloudy,220,2013-11-01 13:15:00
9:35 AM,77.0,71.6,83,29.92,10.0,SW,16.1,19.6,N/A,,Scattered Clouds,230,2013-11-01 13:35:00
9:55 AM,77.0,69.8,78,29.93,10.0,SSW,17.3,26.5,N/A,,Mostly Cloudy,210,2013-11-01 13:55:00
10:15 AM,77.0,69.8,78,29.92,10.0,SW,17.3,23.0,N/A,,Overcast,220,2013-11-01 14:15:00
10:35 AM,77.0,69.8,78,29.92,10.0,SW,11.5,21.9,N/A,,Mostly Cloudy,220,2013-11-01 14:35:00
10:55 AM,78.8,69.8,74,29.91,10.0,SW,15.0,19.6,N/A,,Scattered Clouds,220,2013-11-01 14:55:00
11:15 AM,78.8,69.8,74,29.90,10.0,SSW,10.4,29.9,N/A,,Clear,210,2013-11-01 15:15:00
11:35 AM,78.8,69.8,74,29.90,10.0,SW,12.7,25.3,N/A,,Scattered Clouds,220,2013-11-01 15:35:00
11:55 AM,78.8,69.8,74,29.90,10.0,SSW,15.0,25.3,N/A,,Mostly Cloudy,210,2013-11-01 15:55:00
12:15 PM,78.8,68.0,69,29.89,10.0,SW,17.3,27.6,N/A,,Scattered Clouds,230,2013-11-01 16:15:00
12:35 PM,78.8,68.0,69,29.88,10.0,SW,17.3,23.0,N/A,,Mostly Cloudy,220,2013-11-01 16:35:00
12:55 PM,78.8,68.0,69,29.87,10.0,SW,16.1,23.0,N/A,,Mostly Cloudy,220,2013-11-01 16:55:00
1:15 PM,78.8,68.0,69,29.86,10.0,SW,13.8,19.6,N/A,,Scattered Clouds,220,2013-11-01 17:15:00
1:35 PM,78.8,68.0,69,29.85,10.0,SW,16.1,19.6,N/A,,Scattered Clouds,230,2013-11-01 17:35:00
1:55 PM,78.8,68.0,69,29.84,10.0,SW,12.7,-,N/A,,Overcast,220,2013-11-01 17:55:00
2:15 PM,78.8,68.0,69,29.83,10.0,SSW,11.5,-,N/A,,Overcast,210,2013-11-01 18:15:00
2:35 PM,78.8,68.0,69,29.82,10.0,SW,15.0,23.0,N/A,,Scattered Clouds,220,2013-11-01 18:35:00
2:55 PM,78.8,68.0,69,29.81,10.0,SW,12.7,18.4,N/A,,Clear,220,2013-11-01 18:55:00
3:15 PM,78.8,68.0,69,29.80,10.0,SW,17.3,26.5,N/A,,Clear,220,2013-11-01 19:15:00
3:35 PM,80.6,68.0,65,29.79,10.0,SW,17.3,20.7,N/A,,Scattered Clouds,220,2013-11-01 19:35:00
3:55 PM,80.6,66.2,61,29.79,10.0,SSW,13.8,28.8,N/A,,Scattered Clouds,210,2013-11-01 19:55:00
4:15 PM,77.0,68.0,74,29.79,10.0,SSW,15.0,19.6,N/A,,Scattered Clouds,200,2013-11-01 20:15:00
6:15 PM,71.6,69.8,94,29.79,10.0,SSW,13.8,-,N/A,,Clear,210,2013-11-01 22:15:00
6:35 PM,73.4,69.8,88,29.79,10.0,SSW,12.7,18.4,N/A,,Clear,210,2013-11-01 22:35:00
6:55 PM,71.6,69.8,94,29.79,10.0,SSW,13.8,19.6,N/A,,Clear,200,2013-11-01 22:55:00
7:15 PM,71.6,69.8,94,29.80,10.0,SSW,11.5,17.3,N/A,,Clear,200,2013-11-01 23:15:00
7:35 PM,71.6,69.8,94,29.79,10.0,SSW,10.4,-,N/A,,Clear,200,2013-11-01 23:35:00
7:55 PM,71.6,69.8,94,29.79,10.0,SSW,13.8,19.6,N/A,,Mostly Cloudy,200,2013-11-01 23:55:00
8:15 PM,71.6,69.8,94,29.79,10.0,SSW,12.7,18.4,N/A,,Mostly Cloudy,200,2013-11-02 00:15:00
8:35 PM,73.4,69.8,88,29.78,10.0,SSW,12.7,18.4,N/A,,Scattered Clouds,200,2013-11-02 00:35:00
8:55 PM,73.4,69.8,88,29.79,10.0,SSW,16.1,24.2,N/A,,Mostly Cloudy,200,2013-11-02 00:55:00
9:15 PM,73.4,69.8,88,29.79,10.0,SSW,11.5,21.9,N/A,Rain,Light Rain,210,2013-11-02 01:15:00
9:35 PM,73.4,69.8,88,29.80,10.0,SSW,13.8,17.3,N/A,,Light Drizzle,210,2013-11-02 01:35:00
9:55 PM,71.6,69.8,94,29.80,10.0,SW,11.5,21.9,N/A,,Drizzle,220,2013-11-02 01:55:00
10:15 PM,71.6,71.6,100,29.80,10.0,SW,9.2,-,N/A,,Light Drizzle,230,2013-11-02 02:15:00
10:35 PM,71.6,71.6,100,29.80,10.0,SW,5.8,-,0.01,,Drizzle,220,2013-11-02 02:35:00
10:55 PM,71.6,71.6,100,29.80,10.0,SSW,4.6,-,0.01,Rain,Light Rain,210,2013-11-02 02:55:00
11:15 PM,-9999,-9999,N/A,29.79,7.0,SSW,4.6,-,0.02,Rain,Rain,200,2013-11-02 03:15:00
11:35 PM,-9999,-9999,N/A,29.78,10.0,SSW,6.9,-,0.06,Rain,Light Rain,210,2013-11-02 03:35:00
11:55 PM,-9999,-9999,N/A,29.78,7.0,SW,6.9,-,0.07,Rain,Rain,230,2013-11-02 03:55:00